TimeCST,TemperatureF,Dew PointF,Humidity,Sea Level PressureIn,VisibilityMPH,Wind Direction,Wind SpeedMPH,Gust SpeedMPH,PrecipitationIn,Events,Conditions,WindDirDegrees,DateUTC
12:56 AM,19.9,12.0,71,29.83,-9999.0,NE,5.8,-,N/A,,Unknown,50,2013-01-19 06:56:00
1:56 AM,19.9,12.0,71,29.84,-9999.0,NE,9.2,-,N/A,,Unknown,50,2013-01-19 07:56:00
2:56 AM,19.9,14.0,78,29.84,-9999.0,NE,9.2,-,0.01,,Unknown,50,2013-01-19 08:56:00
3:56 AM,19.0,14.0,81,29.81,-9999.0,NE,9.2,17.3,0.01,,Unknown,50,2013-01-19 09:56:00
4:56 AM,19.9,15.1,81,29.80,-9999.0,NE,9.2,18.4,0.03,,Unknown,50,2013-01-19 10:56:00
5:56 AM,21.9,16.0,78,29.76,-9999.0,NE,16.1,21.9,0.01,,Unknown,50,2013-01-19 11:56:00
6:56 AM,21.9,17.1,82,29.73,-9999.0,NE,13.8,-,0.03,,Unknown,50,2013-01-19 12:56:00
7:56 AM,23.0,19.0,85,29.70,-9999.0,NE,11.5,16.1,0.03,,Unknown,50,2013-01-19 13:56:00
8:56 AM,25.0,21.9,88,29.70,-9999.0,North,4.6,-,0.05,,Unknown,10,2013-01-19 14:56:00
9:56 AM,30.0,25.0,82,29.65,-9999.0,SSE,8.1,-,0.02,,Unknown,160,2013-01-19 15:56:00
10:56 AM,30.9,24.1,76,29.61,-9999.0,South,10.4,-,N/A,,Unknown,170,2013-01-19 16:56:00
11:56 AM,30.0,26.1,85,29.55,-9999.0,South,4.6,-,N/A,,Unknown,190,2013-01-19 17:56:00
12:56 PM,30.9,27.0,85,29.52,-9999.0,West,4.6,-,0.01,,Unknown,260,2013-01-19 18:56:00
1:56 PM,30.9,26.1,82,29.50,-9999.0,West,4.6,-,N/A,,Unknown,270,2013-01-19 19:56:00
2:56 PM,25.0,16.0,69,29.55,-9999.0,Variable,6.9,21.9,N/A,,Unknown,0,2013-01-19 20:56:00
3:56 PM,21.0,10.9,65,29.61,-9999.0,West,9.2,19.6,N/A,,Unknown,280,2013-01-19 21:56:00
4:56 PM,15.1,3.9,61,29.69,-9999.0,NW,11.5,20.7,N/A,,Unknown,310,2013-01-19 22:56:00
5:56 PM,8.1,-2.9,61,29.78,-9999.0,NNW,15.0,21.9,N/A,,Unknown,340,2013-01-19 23:56:00
6:56 PM,3.9,-7.1,60,29.75,-9999.0,NNW,31.1,43.7,N/A,,Unknown,340,2013-01-20 00:56:00
7:56 PM,3.0,-8.0,60,29.76,-9999.0,NNW,29.9,56.4,N/A,,Unknown,330,2013-01-20 01:56:00
8:56 PM,3.0,-8.0,60,29.83,-9999.0,NNW,25.3,50.6,0.01,,Unknown,340,2013-01-20 02:56:00
9:56 PM,3.0,-9.0,57,29.95,-9999.0,Variable,6.9,28.8,0.01,,Unknown,0,2013-01-20 03:56:00
10:56 PM,1.9,-9.9,58,30.02,-9999.0,SW,5.8,-,N/A,,Unknown,220,2013-01-20 04:56:00
11:56 PM,-0.0,-9.0,66,30.08,-9999.0,West,8.1,-,N/A,,Unknown,260,2013-01-20 05:56:00